KUIPER-00164

导读

KUIPER-00164是美国亚马逊“柯伊伯计划”低轨卫星互联网星座的组网卫星,于2025年12月15日由联合发射联盟Atlas V火箭从卡纳维拉尔角发射升空。卫星运行于近地轨道,配备Ka频段多波束相控阵天线,可按需分配通信容量,配合激光星间链路实现高速互联。作为柯伊伯星座大规模部署阶段的组成部分,它将为全球提供高速低延迟互联网接入,支撑云服务、物联网等多元应用,是亚马逊太空通信基础设施布局的重要单元。

基本信息
目录编号:
67134
目录名称:
KUIPER-00164
国际标识:
2025-301B
轨道中心:
EARTH
卫星名称:
KUIPER-00164
卫星全名:
KUIPER-00164
卫星状态:
在轨 (已飞行264 天)
发射日期:
2025-12-15 UTC
国别 :
美国 (US)
星等 :
--
轨道信息
数据来源 国际轨道数据
星历时间: 2026-09-05T14:02:44+0800
10小时前
查看轨道信息
半长轴: 7007.673km
偏心率: 0.0000386
轨道倾角: 51.905°
近地点辐角 107.194°
升交点赤经 354.116°
平近点角 252.907°
近地点: 629.265km
远地点: 629.807km
周期: 97.302分钟
每日圈数: 14.799331
详细信息
使用方式:
暂无
2D轨道图
3D轨道图
轨道高度分析图
轨道倾角分析图
轨道综合分析图
查看轨道综合分析图
交会数据列表
事件ID 空间交会对象 最接近时刻(TCA) 交会距离 交会风险概率(CRP) 交会风险指数(CRI) 操作
CDM_260831-131103-522906-713423
2026-08-31T
13:11:42+0000
1.046 km
极远距离
1.433487E-5 中风险 0.58
CDM_260902-191903-946706-713428
ALICE (39467)
2026-09-02T
19:19:04+0000
1.309 km
极远距离
1.02386E-5 中风险 0.55